Regional Weather Roundup
Issued by NWS Cleveland, OH

Home | Current Version | Previous Version | Graphics & Text | Print | Product List | Glossary On
Versions: 1 2 3 4 5 6 7 8 9 10 11 12 13 14 15 16 17 18 19 20 21 22 23 24 25 26 27 28 29 30 31 32 33 34 35 36 37 38 39 40 41 42 43 44 45 46 47 48 49 50
000
ASUS41 KCLE 172302
RWRCLE
OHIO REGIONAL WEATHER ROUNDUP
NATIONAL WEATHER SERVICE CLEVELAND, OH
700 PM EDT TUE OCT 17 2017

NOTE: "FAIR" INDICATES FEW OR NO CLOUDS BELOW 12,000 FEET WITH NO
SIGNIFICANT WEATHER AND/OR OBSTRUCTIONS TO VISIBILITY.

OHZ001>008-015>018-024>027-034-035-043-044-180000-
   NORTHWEST OHIO

CITY           SKY/WX    TMP DP  RH WIND       PRES   REMARKS
DEFIANCE       CLEAR     63  38  39 SW7       30.18S
FINDLAY        CLEAR     61  38  42 SW9       30.19S
TOLEDO EXPRESS CLEAR     63  42  46 SW6       30.17R
TOLEDO EXEC    CLEAR     63  41  44 SW12      30.18R
LIMA           CLEAR     59  40  49 SW7       30.22S
$$

OHZ009>014-019>023-028>033-038-089-180000-
   NORTHEAST OHIO

CITY           SKY/WX    TMP DP  RH WIND       PRES   REMARKS
CLE-HOPKINS    PTCLDY    61  39  44 SW9       30.21S
CLE-LAKEFRONT  CLEAR     64  37  36 S10       30.18S
CUY CO. ARPT   CLEAR     63  39  42 S8        30.20S
LORAIN-ELYRIA  CLEAR     57  36  45 SW6       30.20S
ASHTABULA      CLEAR     58  39  49 S7        30.20R
AKRON-CANTON   CLEAR     56  38  50 SW8       30.23S
WOOSTER        CLEAR     55  38  52 SW6       30.23S
MANSFIELD      CLEAR     55  39  54 S7        30.23R
YOUNGSTOWN     PTCLDY    56  39  53 S6        30.22S
$$

OHZ042-051>053-060>062-070>072-077>081-180000-
  SOUTHWEST OHIO

CITY           SKY/WX    TMP DP  RH WIND       PRES   REMARKS
CINC-COVINGTON PTCLDY    58  43  57 S5        30.26S
CINC-LUNKEN    CLEAR     58  47  66 S3        30.27S
HAMILTON       CLEAR     57  43  59 CALM      30.27S
DAYTON         PTCLDY    59  41  51 S8        30.26S
WRIGHT-PAT AFB CLEAR     56  39  53 S7        30.25S
DAYTON GENERAL CLEAR     59  39  47 S5        30.25S
WILMINGTON     CLEAR     58  41  53 SW6       30.26S
$$

OHZ036-037-039>041-045>050-054>059-063>069-073>076-082>088-180000-
  CENTRAL AND SOUTHEAST OHIO

CITY           SKY/WX    TMP DP  RH WIND       PRES   REMARKS
COLUMBUS       PTCLDY    62  39  42 S6        30.25S
OSU AIRPORT    CLEAR     61  38  42 SW7       30.25R
BOLTON FIELD   CLEAR     59  37  44 SW3       30.26S
RICKENBACK AFB CLEAR     58  40  49 S6        30.25S
NEWARK         CLEAR     59  38  45 SW5       30.25S
MARION         CLEAR     59  38  45 SW10      30.23S
LANCASTER      CLEAR     59  40  49 S3        30.26S
ZANESVILLE     CLEAR     59  39  47 SW5       30.26S
NEW PHILLY     NOT AVBL
$$




USA.gov is the U.S. government's official web portal to all federal, state and local government web resources and services.